User: anonymous   Login
Location: Stigler
(35.2540°N, 95.1230°W)
Time: 19:17:23
(UTC-05:00)
Language:

Cosmos 1805 - Orbit

View from above orbital plane
View from above orbital plane
View from above satellite
View from above satellite

Ground track
Ground track

The orbit data is extracted from the following two-line orbital elements,

1 17191U 86097A   15239.79388818 +.00001019 +00000-0 +60602-4 0  9990
2 17191 082.4756 318.2808 0005256 169.5508 190.5832 15.10188039564060
Epoch (UTC): 27 August 2015 19:03:11
Eccentricity: 0.0005256
inclination: 82.4756°
perigee height: 532 km
apogee height: 539 km
right ascension of ascending node: 318.2808°
argument of perigee: 169.5508°
revolutions per day: 15.10188039
mean anomaly at epoch: 190.5832°
orbit number at epoch: 56406

The dashed part of the orbit path shows where the satellite is in the earth's shadow,  

DLR